Weather History for Isachsen, NU

Change the Weather History Date:

Saturday, June 29, 2013

  Actual Average Record
Temperature  
Mean Temperature 30 °F -  
Max Temperature 33 °F - - ()
Min Temperature 28 °F - - ()
Degree Days  
Heating Degree Days 34    
Moisture  
Dew Point 32 °F    
Average Humidity 99    
Maximum Humidity 100    
Minimum Humidity 96    
Precipitation  
Precipitation 0.03 in - - ()
Sea Level Pressure  
Sea Level Pressure 29.62 in    
Wind  
Wind Speed 16 mph ()    
Max Wind Speed 25 mph    
Max Gust Speed -    
T = Trace of Precipitation, MM = Missing Value Source: Averaged Metar Reports

Daily Weather History Graph

Daily Weather History Graph

Search for Another Location

Airport:

Trip Planner

Search our weather history database for the weather conditions in past years. The results will help you decide how hot, cold, wet, or windy it might be!

Date:

Astronomy

Dec. 31, 1969 Rise Set
Actual Time Sun does not rise Sun does not rise
Civil Twilight Sun does not rise Sun does not rise
Nautical Twilight Sun does not rise Sun does not rise
Astronomical Twilight Sun does not rise Sun does not rise
Moon 10:35 PM MDT (6/29) 2:05 PM MDT (6/29)
Length of Visible Light 24h 00m
Length of Day
24h 00m
Waning Gibbous, 55% of the Moon is Illuminated
Jun 29
Waning Gibbous
Jun 29
Last Quarter
Jul 8
New
Jul 15
First Quarter
Jul 22
Full

Hourly Weather History & Observations

Time (MDT) Temp. Windchill Dew Point Humidity Pressure Visibility Wind Dir Wind Speed Gust Speed Precip Events Conditions
12:00 AM 32 °F - 31 °F 96% 29.78 in - South 16.1 mph - -  
12:00 AM 31.6 °F 20.7 °F 31.3 °F 99% 29.78 in - South 16.1 mph - N/A   Unknown
1:00 AM 31.1 °F 18.9 °F 30.9 °F 99% 29.75 in - South 19.6 mph - 0.01 in   Unknown
2:00 AM 30.7 °F 17.2 °F 30.6 °F 99% 29.73 in - South 24.2 mph - 0.02 in   Unknown
3:00 AM 31.3 °F 18.5 °F 31.1 °F 99% 29.71 in - South 21.9 mph - 0.01 in   Unknown
4:00 AM 31.6 °F 18.1 °F 31.5 °F 99% 29.69 in - South 25.3 mph - N/A   Unknown
5:00 AM 31.8 °F 19.3 °F 31.8 °F 100% 29.66 in - SSW 21.9 mph - N/A   Unknown
6:00 AM 32 °F - 32 °F 99% 29.64 in - SSW 18.4 mph - -  
6:00 AM 32.0 °F 20.5 °F 32.0 °F 100% 29.64 in - SSW 18.4 mph - 0.02 in   Unknown
7:00 AM 32.0 °F 22.1 °F 31.8 °F 99% 29.63 in - SW 13.8 mph - N/A   Unknown
8:00 AM 32.2 °F 20.7 °F 32.0 °F 99% 29.62 in - WSW 18.4 mph - N/A   Unknown
9:00 AM 32.2 °F 21.4 °F 32.0 °F 99% 29.60 in - WSW 16.1 mph - N/A   Unknown
10:00 AM 32.4 °F 21.3 °F 32.2 °F 99% 29.60 in - WSW 17.3 mph - N/A   Unknown
11:00 AM 32.4 °F 21.7 °F 32.2 °F 99% 29.59 in - WSW 16.1 mph - 0.01 in   Unknown
12:00 PM 33 °F - 32 °F 96% 29.59 in - WSW 16.1 mph - -  
12:00 PM 32.5 °F 21.9 °F 32.5 °F 100% 29.58 in - WSW 16.1 mph - N/A   Unknown
1:00 PM 33.1 °F 23.4 °F 33.1 °F 100% 29.58 in - SW 13.8 mph - N/A   Unknown
2:00 PM 33.3 °F 22.8 °F 33.1 °F 99% 29.58 in - WSW 16.1 mph - 0.01 in   Unknown
3:00 PM 33.3 °F 21.8 °F 33.1 °F 99% 29.58 in - WSW 19.6 mph - N/A   Unknown
4:00 PM 33.3 °F 22.1 °F 33.1 °F 99% 29.57 in - WSW 18.4 mph - N/A   Unknown
5:00 PM 32.7 °F 21.8 °F 32.7 °F 100% 29.57 in - WSW 17.3 mph - 0.01 in   Unknown
6:00 PM 32 °F - 32 °F 100% 29.57 in - WSW 17.3 mph - -  
6:00 PM 32.4 °F 21.3 °F 32.4 °F 100% 29.57 in - WSW 17.3 mph - N/A   Unknown
7:00 PM 32.2 °F 20.7 °F 32.2 °F 100% 29.56 in - WSW 18.4 mph - N/A   Unknown
8:00 PM 32.2 °F 20.7 °F 32.2 °F 100% 29.55 in - WSW 18.4 mph - 0.01 in   Unknown
9:00 PM 31.8 °F 21.8 °F 31.8 °F 100% 29.55 in - West 13.8 mph - N/A   Unknown
10:00 PM 31.8 °F 22.3 °F 31.8 °F 100% 29.55 in - West 12.7 mph - 0.01 in   Unknown
11:00 PM 31.8 °F 22.3 °F 31.8 °F 100% 29.55 in - West 12.7 mph - N/A   Unknown